Location: Bathurst
(33.4193°S, 149.5775°E)
Time: 08:41:14
(UTC+10:00)

Vanguard 1 Rocket - Pass Details

Date: 14 June 2021
Orbit: 650 x 4226 km, 34.3° (Epoch: 02 August)

Event Time Altitude Azimuth Distance (km) Brightness Sun altitude
Rises 16:14:16 0° 258° (WSW) 3,785 11.3 7.4°
Reaches altitude 10° 16:17:32 10° 267° (W) 2,491 10.7 6.9°
Maximum altitude 16:22:19 33° 330° (NNW) 1,159 9.0 6.1°
Drops below altitude 10° 16:26:16 10° 36° (NE) 2,047 9.2 5.4°
Sets 16:28:42 0° 46° (NE) 3,001 9.9 4.9°
